Location: Newark
(2.0333°N, 45.3500°E)
Time: 09:02:17
(UTC+00:00)

Hubble Space Telescope - Visible Passes

Search period start: 20 September 2020 00:00
Search period end: 30 September 2020 00:00
Orbit: 536 x 540 km, 28.5° (Epoch: 19 September)

Date Brightness Start Highest point End Pass type
(mag) Time Alt. Az. Time Alt. Az. Time Alt. Az.
20 Sep 3.3 00:42:45 19° ENE 00:42:45 19° ENE 00:44:02 10° ENE visible
20 Sep 2.5 02:18:14 10° WNW 02:21:08 18° NNW 02:24:02 10° NNE visible
21 Sep 3.9 00:33:04 12° ENE 00:33:04 12° ENE 00:33:19 10° ENE visible
21 Sep 2.9 02:08:25 10° WNW 02:10:29 14° NNW 02:12:38 10° N visible
22 Sep 3.1 01:59:17 10° NNW 01:59:51 10° NNW 02:00:24 10° NNW visible
